EDW394 LSZH-LIBD

Flight info

Callsign EDW394
Flight time 1h 20m
Altitude 37000
Route DEGES Y170 ARGAX DCT RESIA DCT LOBSI DCT KEGED DCT ARSOB DCT AFCAM DCT BEFHE DCT EKMUR
Aircraft A320/M-SDE3FGHIRWY/LB1

Departure

Time 2026-05-05 19:25
Airport Zürich Airport (LSZH)

Arrival

Time 2026-05-05 20:45
Airport Bari Karol Wojtyła International Airport (LIBD)
Time Latitude Longitude Altitude Speed Heading
2026-05-05 18:42 47.45410 8.55946 1407 ft 0 kts 185°
2026-05-05 19:13 47.45411 8.55946 1407 ft 2 kts 185°
2026-05-05 19:13 47.45436 8.55951 1409 ft 4 kts 191°
2026-05-05 19:13 47.45461 8.55954 1410 ft 2 kts 162°
2026-05-05 19:14 47.45482 8.55942 1411 ft 4 kts 143°
2026-05-05 19:14 47.45496 8.55913 1409 ft 3 kts 99°
2026-05-05 19:14 47.45497 8.55907 1408 ft 0 kts 96°
2026-05-05 19:17 47.45496 8.55921 1410 ft 3 kts 96°
2026-05-05 19:17 47.45492 8.55976 1411 ft 8 kts 96°
2026-05-05 19:17 47.45484 8.56080 1407 ft 12 kts 96°
2026-05-05 19:18 47.45478 8.56199 1411 ft 8 kts 88°
2026-05-05 19:18 47.45521 8.56249 1412 ft 9 kts
2026-05-05 19:18 47.45545 8.56252 1414 ft 0 kts
2026-05-05 19:19 47.45565 8.56255 1414 ft 7 kts
2026-05-05 19:19 47.45603 8.56261 1416 ft 4 kts
2026-05-05 19:19 47.45613 8.56262 1412 ft 1 kts
2026-05-05 19:19 47.45614 8.56262 1413 ft 0 kts
2026-05-05 19:20 47.45628 8.56264 1415 ft 8 kts
2026-05-05 19:20 47.45700 8.56275 1413 ft 20 kts
2026-05-05 19:20 47.45828 8.56296 1415 ft 11 kts
2026-05-05 19:20 47.45879 8.56304 1414 ft 11 kts
2026-05-05 19:21 47.45946 8.56314 1413 ft 0 kts
2026-05-05 19:21 47.45948 8.56314 1412 ft 0 kts
2026-05-05 19:21 47.45962 8.56316 1412 ft 5 kts
2026-05-05 19:21 47.46007 8.56323 1415 ft 7 kts
2026-05-05 19:22 47.46025 8.56326 1414 ft 0 kts
2026-05-05 19:23 47.46052 8.56331 1411 ft 10 kts
2026-05-05 19:23 47.46126 8.56371 1414 ft 11 kts 36°
2026-05-05 19:23 47.46165 8.56400 1410 ft 5 kts 349°
2026-05-05 19:23 47.46199 8.56352 1409 ft 8 kts 316°
2026-05-05 19:24 47.46282 8.56239 1406 ft 41 kts 317°
2026-05-05 19:24 47.46685 8.55689 1394 ft 113 kts 317°
2026-05-05 19:24 47.47408 8.54701 1399 ft 167 kts 317°
2026-05-05 19:24 47.48296 8.53490 1879 ft 172 kts 316°
2026-05-05 19:25 47.49185 8.52324 2637 ft 170 kts 314°
2026-05-05 19:25 47.50198 8.51282 3033 ft 189 kts 327°
2026-05-05 19:25 47.51413 8.50283 3330 ft 211 kts 327°
2026-05-05 19:25 47.52597 8.48937 3794 ft 218 kts 306°
2026-05-05 19:26 47.53330 8.47028 4604 ft 211 kts 284°
2026-05-05 19:26 47.53516 8.44910 5349 ft 208 kts 263°
2026-05-05 19:26 47.53145 8.42855 6162 ft 207 kts 244°
2026-05-05 19:26 47.52354 8.41051 6681 ft 225 kts 224°
2026-05-05 19:27 47.50848 8.40004 7034 ft 255 kts 189°
2026-05-05 19:27 47.49086 8.40544 7659 ft 277 kts 154°
2026-05-05 19:27 47.47708 8.42614 8450 ft 293 kts 121°
2026-05-05 19:27 47.47059 8.45500 9308 ft 301 kts 103°
2026-05-05 19:28 47.46827 8.48610 10153 ft 305 kts 96°
2026-05-05 19:28 47.46738 8.51822 10478 ft 326 kts 95°
2026-05-05 19:28 47.46650 8.55297 10690 ft 349 kts 95°
2026-05-05 19:28 47.46501 8.58964 11131 ft 361 kts 97°
2026-05-05 19:29 47.46284 8.62664 11783 ft 367 kts 98°
2026-05-05 19:29 47.46006 8.66424 12444 ft 371 kts 99°
2026-05-05 19:29 47.45685 8.70228 13116 ft 376 kts 100°
2026-05-05 19:29 47.45338 8.74094 13769 ft 380 kts 100°
2026-05-05 19:30 47.44985 8.77986 14347 ft 384 kts 99°
2026-05-05 19:30 47.44631 8.81921 15013 ft 385 kts 99°
2026-05-05 19:30 47.44283 8.85856 15668 ft 388 kts 99°
2026-05-05 19:30 47.43931 8.89864 16315 ft 390 kts 99°
2026-05-05 19:31 47.43590 8.93766 16932 ft 393 kts 99°
2026-05-05 19:31 47.43237 8.97780 17563 ft 395 kts 99°
2026-05-05 19:31 47.42878 9.01818 18179 ft 398 kts 100°
2026-05-05 19:31 47.42515 9.05904 18720 ft 401 kts 100°
2026-05-05 19:32 47.42060 9.09887 19220 ft 401 kts 108°
2026-05-05 19:32 47.41036 9.13709 19735 ft 399 kts 122°
2026-05-05 19:32 47.39441 9.17031 20265 ft 397 kts 136°
2026-05-05 19:32 47.37395 9.19669 20756 ft 394 kts 150°
2026-05-05 19:33 47.34988 9.21537 21258 ft 391 kts 163°
2026-05-05 19:33 47.32363 9.22560 21779 ft 388 kts 173°
2026-05-05 19:33 47.29690 9.23262 22301 ft 390 kts 173°
2026-05-05 19:33 47.27011 9.23968 22808 ft 392 kts 173°
2026-05-05 19:34 47.24312 9.24681 23312 ft 395 kts 173°
2026-05-05 19:34 47.21610 9.25400 23735 ft 396 kts 174°
2026-05-05 19:34 47.18894 9.26125 24163 ft 397 kts 174°
2026-05-05 19:35 47.13480 9.27561 24860 ft 400 kts 174°
2026-05-05 19:35 47.10734 9.28284 25232 ft 402 kts 174°
2026-05-05 19:35 47.07951 9.29124 25572 ft 407 kts 169°
2026-05-05 19:35 47.05318 9.30581 25919 ft 415 kts 159°
2026-05-05 19:36 47.02818 9.32793 26245 ft 424 kts 148°
2026-05-05 19:36 47.00558 9.35639 26575 ft 431 kts 143°
2026-05-05 19:36 46.98306 9.38637 26929 ft 433 kts 144°
2026-05-05 19:36 46.96091 9.41570 27254 ft 435 kts 144°
2026-05-05 19:37 46.93842 9.44534 27461 ft 437 kts 144°
2026-05-05 19:37 46.91566 9.47519 27767 ft 439 kts 144°
2026-05-05 19:37 46.89279 9.50510 28050 ft 441 kts 144°
2026-05-05 19:37 46.86984 9.53513 28322 ft 443 kts 145°
2026-05-05 19:38 46.84686 9.56518 28612 ft 445 kts 145°
2026-05-05 19:38 46.82372 9.59548 28899 ft 448 kts 145°
2026-05-05 19:38 46.80045 9.62595 29169 ft 450 kts 145°
2026-05-05 19:38 46.77717 9.65640 29452 ft 451 kts 145°
2026-05-05 19:39 46.75371 9.68702 29672 ft 453 kts 144°
2026-05-05 19:39 46.73022 9.71764 29910 ft 454 kts 144°
2026-05-05 19:39 46.70663 9.74835 30228 ft 454 kts 144°
2026-05-05 19:39 46.68332 9.77864 30503 ft 453 kts 144°
2026-05-05 19:40 46.65979 9.80915 30749 ft 453 kts 145°
2026-05-05 19:40 46.63624 9.83961 31043 ft 453 kts 145°
2026-05-05 19:40 46.61267 9.87009 31358 ft 452 kts 145°
2026-05-05 19:40 46.58921 9.90042 31635 ft 452 kts 145°
2026-05-05 19:41 46.56565 9.93084 31932 ft 452 kts 146°
2026-05-05 19:41 46.54218 9.96114 32121 ft 452 kts 146°
2026-05-05 19:41 46.51860 9.99157 32353 ft 452 kts 146°
2026-05-05 19:41 46.49509 10.02184 32553 ft 453 kts 146°
2026-05-05 19:42 46.47147 10.05231 32820 ft 453 kts 146°
2026-05-05 19:42 46.44832 10.08338 33087 ft 455 kts 144°
2026-05-05 19:42 46.42556 10.11526 33279 ft 457 kts 143°
2026-05-05 19:42 46.40288 10.14771 33483 ft 458 kts 143°
2026-05-05 19:43 46.38026 10.18024 33769 ft 458 kts 143°
2026-05-05 19:43 46.35770 10.21258 34042 ft 457 kts 143°
2026-05-05 19:43 46.33500 10.24489 34268 ft 456 kts 144°
2026-05-05 19:43 46.31221 10.27697 34546 ft 455 kts 144°
2026-05-05 19:44 46.28974 10.30831 34788 ft 454 kts 144°
2026-05-05 19:44 46.26697 10.33988 35040 ft 453 kts 143°
2026-05-05 19:44 46.24425 10.37136 35279 ft 453 kts 143°
2026-05-05 19:44 46.22141 10.40306 35510 ft 452 kts 143°
2026-05-05 19:45 46.19885 10.43441 35702 ft 452 kts 143°
2026-05-05 19:45 46.17616 10.46594 35897 ft 451 kts 143°
2026-05-05 19:45 46.15353 10.49733 36095 ft 451 kts 143°
2026-05-05 19:45 46.13094 10.52865 36310 ft 450 kts 142°
2026-05-05 19:46 46.10839 10.55982 36512 ft 449 kts 142°
2026-05-05 19:46 46.08576 10.59103 36730 ft 449 kts 142°
2026-05-05 19:46 46.06331 10.62204 36933 ft 448 kts 142°
2026-05-05 19:47 46.01821 10.68427 37006 ft 450 kts 142°
2026-05-05 19:47 45.97294 10.74643 36981 ft 450 kts 142°
2026-05-05 19:48 45.92750 10.80858 37007 ft 451 kts 142°
2026-05-05 19:48 45.88245 10.87006 37008 ft 451 kts 142°
2026-05-05 19:49 45.83695 10.93215 36983 ft 450 kts 142°
2026-05-05 19:49 45.79139 10.99427 36988 ft 452 kts 142°
2026-05-05 19:50 45.74582 11.05620 36985 ft 452 kts 142°
2026-05-05 19:50 45.70008 11.11813 36981 ft 453 kts 142°
2026-05-05 19:51 45.65433 11.17996 36984 ft 453 kts 142°
2026-05-05 19:51 45.60849 11.24172 36967 ft 453 kts 143°
2026-05-05 19:52 45.56284 11.30305 36972 ft 454 kts 143°
2026-05-05 19:52 45.51689 11.36476 36987 ft 454 kts 143°
2026-05-05 19:53 45.47081 11.42651 36981 ft 455 kts 143°
2026-05-05 19:53 45.42464 11.48818 36990 ft 455 kts 143°
2026-05-05 19:54 45.37838 11.54984 36983 ft 455 kts 143°
2026-05-05 19:54 45.33225 11.61123 36992 ft 455 kts 143°
2026-05-05 19:55 45.28596 11.67257 36972 ft 456 kts 143°
2026-05-05 19:55 45.23973 11.73371 36991 ft 457 kts 143°
2026-05-05 19:56 45.19323 11.79514 36987 ft 457 kts 143°
2026-05-05 19:56 45.14652 11.85659 36973 ft 458 kts 143°
2026-05-05 19:57 45.09974 11.91805 36973 ft 459 kts 143°
2026-05-05 19:57 45.05277 11.97955 36983 ft 461 kts 143°
2026-05-05 19:58 45.00548 12.04136 36979 ft 463 kts 143°
2026-05-05 19:58 44.95843 12.10291 36982 ft 463 kts 143°
2026-05-05 19:59 44.91096 12.16469 36975 ft 463 kts 143°
2026-05-05 19:59 44.86392 12.22582 36974 ft 463 kts 143°
2026-05-05 20:00 44.81635 12.28719 36944 ft 464 kts 143°
2026-05-05 20:00 44.76869 12.34845 36952 ft 464 kts 143°
2026-05-05 20:01 44.72099 12.40984 36959 ft 465 kts 143°
2026-05-05 20:01 44.67310 12.47131 36949 ft 466 kts 143°
2026-05-05 20:02 44.62529 12.53251 36955 ft 466 kts 143°
2026-05-05 20:02 44.57718 12.59400 36943 ft 467 kts 143°
2026-05-05 20:03 44.52909 12.65535 36954 ft 468 kts 143°
2026-05-05 20:03 44.48083 12.71665 36973 ft 468 kts 143°
2026-05-05 20:04 44.43255 12.77796 36968 ft 469 kts 143°
2026-05-05 20:04 44.38415 12.83922 36953 ft 469 kts 143°
2026-05-05 20:05 44.33566 12.90040 36955 ft 470 kts 143°
2026-05-05 20:05 44.28694 12.96176 36964 ft 471 kts 143°
2026-05-05 20:06 44.23849 13.02265 36961 ft 472 kts 143°
2026-05-05 20:06 44.18968 13.08383 36975 ft 471 kts 143°
2026-05-05 20:07 44.14086 13.14487 36956 ft 472 kts 143°
2026-05-05 20:07 44.09211 13.20568 36969 ft 472 kts 143°
2026-05-05 20:08 44.04308 13.26672 36974 ft 472 kts 143°
2026-05-05 20:08 43.99419 13.32744 36982 ft 472 kts 143°
2026-05-05 20:09 43.95343 13.37797 37000 ft 473 kts 143°
2026-05-05 20:09 43.90420 13.43878 37010 ft 473 kts 143°
2026-05-05 20:10 43.85502 13.49934 36996 ft 472 kts 142°
2026-05-05 20:10 43.80593 13.55988 37001 ft 473 kts 143°
2026-05-05 20:11 43.75671 13.62034 37011 ft 473 kts 143°
2026-05-05 20:11 43.70741 13.68072 37020 ft 473 kts 143°
2026-05-05 20:12 43.65843 13.74064 37021 ft 473 kts 143°
2026-05-05 20:12 43.60907 13.80088 37027 ft 473 kts 143°
2026-05-05 20:13 43.55961 13.86095 36990 ft 473 kts 143°
2026-05-05 20:13 43.50984 13.92065 36997 ft 474 kts 144°
2026-05-05 20:14 43.45998 13.98005 37010 ft 474 kts 144°
2026-05-05 20:14 43.41002 14.03946 37017 ft 475 kts 144°
2026-05-05 20:15 43.36010 14.09887 37028 ft 475 kts 144°
2026-05-05 20:15 43.31004 14.15841 37013 ft 475 kts 144°
2026-05-05 20:16 43.26004 14.21765 37019 ft 475 kts 144°
2026-05-05 20:16 43.20986 14.27700 37020 ft 476 kts 144°
2026-05-05 20:17 43.15955 14.33629 37013 ft 477 kts 144°
2026-05-05 20:17 43.10959 14.39506 37012 ft 477 kts 144°
2026-05-05 20:18 43.05923 14.45416 37028 ft 477 kts 144°
2026-05-05 20:18 43.00870 14.51339 37034 ft 477 kts 144°
2026-05-05 20:19 42.95813 14.57238 37031 ft 477 kts 144°
2026-05-05 20:19 42.90768 14.63122 37033 ft 477 kts 144°
2026-05-05 20:20 42.85716 14.69011 37013 ft 477 kts 144°
2026-05-05 20:20 42.80655 14.74883 37017 ft 478 kts 144°
2026-05-05 20:21 42.75592 14.80731 37023 ft 478 kts 144°
2026-05-05 20:21 42.70520 14.86593 37026 ft 478 kts 144°
2026-05-05 20:22 42.65492 14.92435 37027 ft 479 kts 143°
2026-05-05 20:22 42.60506 14.98439 37007 ft 480 kts 142°
2026-05-05 20:23 42.55527 15.04494 37012 ft 480 kts 142°
2026-05-05 20:23 42.50530 15.10510 37018 ft 480 kts 143°
2026-05-05 20:24 42.45506 15.16496 37026 ft 480 kts 143°
2026-05-05 20:24 42.40478 15.22472 37017 ft 480 kts 142°
2026-05-05 20:25 42.35464 15.28427 37024 ft 480 kts 142°
2026-05-05 20:25 42.30443 15.34400 37013 ft 481 kts 142°
2026-05-05 20:26 42.25416 15.40374 37026 ft 481 kts 142°
2026-05-05 20:26 42.20380 15.46322 37024 ft 482 kts 142°
2026-05-05 20:27 42.15362 15.52226 37036 ft 482 kts 142°
2026-05-05 20:27 42.10320 15.58158 36986 ft 482 kts 142°
2026-05-05 20:27 42.07798 15.61120 36430 ft 482 kts 142°
2026-05-05 20:28 42.05250 15.64111 35154 ft 494 kts 143°
2026-05-05 20:28 42.02623 15.67181 33853 ft 505 kts 143°
2026-05-05 20:28 41.99949 15.70304 32622 ft 510 kts 143°
2026-05-05 20:28 41.97265 15.73440 31587 ft 510 kts 142°
2026-05-05 20:29 41.94589 15.76563 30634 ft 509 kts 142°
2026-05-05 20:29 41.92111 15.79849 29740 ft 509 kts 134°
2026-05-05 20:29 41.89767 15.83397 28787 ft 505 kts 134°
2026-05-05 20:29 41.87450 15.86890 28028 ft 499 kts 134°
2026-05-05 20:30 41.85148 15.90346 27327 ft 492 kts 134°
2026-05-05 20:30 41.82893 15.93724 26671 ft 485 kts 134°
2026-05-05 20:30 41.80658 15.97068 25985 ft 478 kts 134°
2026-05-05 20:30 41.78457 16.00357 25373 ft 471 kts 134°
2026-05-05 20:31 41.76280 16.03607 24752 ft 466 kts 134°
2026-05-05 20:31 41.74163 16.06766 24176 ft 460 kts 134°
2026-05-05 20:31 41.72008 16.09978 23593 ft 454 kts 134°
2026-05-05 20:31 41.69938 16.13054 22939 ft 449 kts 134°
2026-05-05 20:32 41.67830 16.16182 22282 ft 444 kts 134°
2026-05-05 20:32 41.65801 16.19190 21671 ft 439 kts 134°
2026-05-05 20:32 41.63733 16.22250 21057 ft 435 kts 134°
2026-05-05 20:32 41.61744 16.25200 20480 ft 431 kts 134°
2026-05-05 20:33 41.59736 16.28180 19920 ft 428 kts 134°
2026-05-05 20:33 41.57756 16.31112 19371 ft 424 kts 134°
2026-05-05 20:33 41.55782 16.34034 18842 ft 421 kts 134°
2026-05-05 20:33 41.53825 16.36921 18330 ft 417 kts 134°
2026-05-05 20:34 41.51837 16.39711 17765 ft 412 kts 139°
2026-05-05 20:34 41.49748 16.42252 16807 ft 403 kts 140°
2026-05-05 20:34 41.47685 16.44752 15795 ft 398 kts 140°
2026-05-05 20:34 41.45653 16.47209 14841 ft 392 kts 140°
2026-05-05 20:35 41.43645 16.49636 13911 ft 386 kts 139°
2026-05-05 20:35 41.41579 16.51849 12887 ft 377 kts 149°
2026-05-05 20:35 41.39292 16.53389 12294 ft 359 kts 161°
2026-05-05 20:35 41.36986 16.54532 12119 ft 352 kts 161°
2026-05-05 20:36 41.34703 16.55685 12030 ft 350 kts 161°
2026-05-05 20:36 41.32436 16.56799 12042 ft 340 kts 166°
2026-05-05 20:36 41.30233 16.57227 11892 ft 312 kts 183°
2026-05-05 20:36 41.28122 16.56798 11390 ft 299 kts 200°
2026-05-05 20:37 41.26271 16.55616 10764 ft 293 kts 213°
2026-05-05 20:37 41.24558 16.54214 10108 ft 292 kts 213°
2026-05-05 20:37 41.22839 16.52812 9422 ft 289 kts 212°
2026-05-05 20:37 41.21127 16.51424 8742 ft 286 kts 212°
2026-05-05 20:38 41.19438 16.50057 8078 ft 282 kts 212°
2026-05-05 20:38 41.17776 16.48714 7418 ft 279 kts 212°
2026-05-05 20:38 41.16127 16.47382 6771 ft 275 kts 212°
2026-05-05 20:38 41.14502 16.46069 6113 ft 272 kts 212°
2026-05-05 20:39 41.12892 16.44771 5388 ft 270 kts 212°
2026-05-05 20:39 41.11281 16.43473 4681 ft 269 kts 211°
2026-05-05 20:39 41.09577 16.42661 4257 ft 255 kts 185°
2026-05-05 20:39 41.07915 16.43010 4094 ft 235 kts 156°
2026-05-05 20:40 41.06643 16.44293 3999 ft 227 kts 129°
2026-05-05 20:40 41.05958 16.46153 4013 ft 229 kts 103°
2026-05-05 20:40 41.05953 16.48215 4008 ft 220 kts 76°
2026-05-05 20:40 41.06450 16.50098 3890 ft 214 kts 69°
2026-05-05 20:41 41.06975 16.51909 3658 ft 212 kts 69°
2026-05-05 20:41 41.07480 16.53666 3401 ft 211 kts 69°
2026-05-05 20:41 41.08000 16.55484 3125 ft 211 kts 69°
2026-05-05 20:41 41.08520 16.57305 2846 ft 211 kts 70°
2026-05-05 20:42 41.09040 16.59126 2596 ft 208 kts 70°
2026-05-05 20:42 41.09537 16.60869 2298 ft 197 kts 70°
2026-05-05 20:42 41.10005 16.62512 2044 ft 185 kts 71°
2026-05-05 20:42 41.10444 16.64053 1804 ft 172 kts 72°
2026-05-05 20:43 41.10845 16.65462 1592 ft 158 kts 71°
2026-05-05 20:43 41.11226 16.66802 1377 ft 151 kts 71°
2026-05-05 20:43 41.11591 16.68087 1178 ft 147 kts 71°
2026-05-05 20:43 41.11949 16.69340 987 ft 144 kts 70°
2026-05-05 20:44 41.12301 16.70571 780 ft 144 kts 71°
2026-05-05 20:44 41.12649 16.71797 599 ft 142 kts 71°
2026-05-05 20:44 41.12992 16.73015 403 ft 140 kts 70°
2026-05-05 20:44 41.13328 16.74208 200 ft 138 kts 70°
2026-05-05 20:45 41.13847 16.76052 136 ft 62 kts 70°
2026-05-05 20:45 41.13961 16.76446 123 ft 40 kts 70°
2026-05-05 20:45 41.13986 16.76668 122 ft 15 kts 116°
2026-05-05 20:46 41.13949 16.76779 124 ft 11 kts 114°
2026-05-05 20:46 41.13888 16.76815 121 ft 10 kts 204°
2026-05-05 20:46 41.13861 16.76754 126 ft 5 kts 248°
2026-05-05 20:46 41.13853 16.76725 125 ft 3 kts 251°
2026-05-05 20:47 41.13840 16.76679 128 ft 9 kts 249°
2026-05-05 20:47 41.13810 16.76577 134 ft 11 kts 238°
2026-05-05 20:47 41.13745 16.76564 136 ft 11 kts 171°
2026-05-05 20:47 41.13661 16.76518 136 ft 14 kts 221°
2026-05-05 20:48 41.13598 16.76502 136 ft 9 kts 159°
2026-05-05 20:48 41.13574 16.76514 136 ft 0 kts 160°